Location: Alpine
(43.1636°N, 111.0180°W)
Time: 03:57:34
(UTC+00:00)

Tiros 1 despin weight - Pass Details

Date: 01 June 2022
Orbit: 591 x 639 km, 48.2° (Epoch: 30 June)

Event Time Altitude Azimuth Distance (km) Brightness Sun altitude
Rises 06:18:43 0° 284° (WNW) 2,838 ? -23.2°
Reaches altitude 10° 06:21:47 10° 263° (W) 1,925 ? -23.3°
Enters shadow 06:22:46 13° 251° (WSW) 1,726 ? -23.4°
Maximum altitude 06:24:25 16° 226° (SW) 1,579 - -23.4°
Drops below altitude 10° 06:27:03 10° 189° (S) 1,910 - -23.6°
Sets 06:30:04 0° 167° (SSE) 2,805 - -23.7°
